Location: Ponte Samoggia
(44.5667°N, 11.1333°E)
Time: 22:22:56
(UTC+00:00)

Helios 1A - Pass Details

Date: 26 May 2022
Orbit: 582 x 600 km, 98.2° (Epoch: 29 June)

Event Time Altitude Azimuth Distance (km) Brightness Sun altitude
Exits shadow 01:17:36 15° 146° (SSE) 1,643 5.0 -18.4°
Maximum altitude 01:20:58 54° 72° (ENE) 729 3.6 -18.1°
Drops below altitude 10° 01:25:05 10° 355° (N) 1,949 6.4 -17.7°
Sets 01:27:18 0° 351° (N) 2,858 7.2 -17.5°
